Location: Henderson
(36.0400°N, 114.9810°W)
Time: 20:20:10
(UTC-07:00)

Daily predictions for brighter satellites

Satellite Brightness Start Highest point End
(mag) Time Altitude Azimuth Time Altitude Azimuth Time Altitude Azimuth
Cosmos 1939 Rocket 4.1 20:26:20 10° SE 20:29:38 26° ENE 20:32:55 10° NNE
CZ-2C R/B 1.8 20:31:03 10° ESE 20:32:20 16° ENE 20:33:36 10° NNE
Cosmos 405 Rocket 3.2 20:32:23 10° SSW 20:36:02 62° W 20:39:44 10° N
Cosmos 2322 Rocket 2.9 20:31:52 10° N 20:37:06 39° ENE 20:42:18 10° SE
SPOT 5 4.1 20:36:52 10° ESE 20:40:28 24° ENE 20:44:12 10° NNE
Cosmos 2026 Rocket 4.0 20:35:47 10° S 20:41:52 89° E 20:48:02 10° N
Cosmos 371 Rocket 3.9 20:39:43 10° N 20:44:17 41° ENE 20:48:40 11° SE
SL-16 R/B 2.8 20:40:20 10° N 20:45:43 43° ENE 20:50:48 11° SE
Cosmos 1076 Rocket 4.1 20:42:02 10° SSW 20:46:14 61° W 20:50:29 10° N
Meteor 1-24 Rocket 4.3 20:41:25 10° SSW 20:47:02 62° W 20:52:30 10° N
Cosmos 1980 Rocket 2.6 20:42:27 10° NNW 20:48:04 64° WSW 20:53:41 10° S
Cosmos 2360 Rocket 4.0 20:44:30 10° NNE 20:48:17 18° NE 20:52:02 10° E
ALOS 3.3 20:46:42 10° S 20:51:09 45° W 20:55:39 10° NNW
In-Cosmos 22 4.3 20:48:33 10° S 20:54:14 66° E 20:59:57 10° NNE
Cosmos 1697 Rocket 4.3 20:50:16 10° NW 20:55:11 31° WSW 21:00:05 10° SSW
H-2A R/B 2.3 20:51:21 10° SSE 20:55:48 63° ENE 21:00:18 10° N
Cosmos 1655 Rocket 4.3 20:49:41 10° SSW 20:55:53 74° W 21:02:07 10° N
Cosmos 1538 Rocket 4.4 20:50:47 10° N 20:55:57 49° ENE 21:00:28 13° SE
USA 186 3.8 20:56:42 10° SW 20:58:26 18° W 21:00:10 10° NW
Cosmos 1437 Rocket 3.7 20:58:09 10° NNE 21:01:30 29° ENE 21:03:44 17° SE
Cosmos 2228 Rocket 3.1 20:58:46 10° N 21:03:15 85° E 21:07:46 10° S
Cosmos 1674 3.6 21:01:11 15° SSE 21:03:45 30° E 21:07:08 10° NNE
Cosmos 1328 Rocket 3.6 20:59:47 10° N 21:04:13 65° E 21:08:13 12° SSE
S3M 3.9 20:58:14 10° N 21:04:21 74° E 21:10:27 10° SSE
PSLV R/B 4.2 21:04:08 19° SE 21:05:46 31° ENE 21:08:31 10° N
Cosmos 1833 4.5 21:05:33 10° S 21:11:00 47° ESE 21:16:26 10° NE
Cosmos 1743 Rocket 3.9 21:08:53 10° SSW 21:13:20 70° W 21:17:48 10° N
Meteor 1-21 Rocket 4.1 21:09:45 10° S 21:15:18 86° E 21:20:52 10° N
CZ-4B R/B 4.0 21:11:26 10° NNE 21:16:25 41° E 21:20:20 15° SSE
Cosmos 2058 4.4 21:16:00 18° ESE 21:16:52 19° E 21:19:44 10° NE
GPS 2-04 Rocket1 3.1 21:12:55 10° W 21:17:12 54° SSW 21:19:40 23° SE
deb Chang Zheng 4 4.4 21:16:10 10° N 21:20:24 53° WNW 21:24:36 10° SSW
Cosmos 1500 Rocket 3.5 21:16:05 10° S 21:20:26 88° W 21:24:51 10° N
Cosmos 773 Rocket 4.3 21:20:45 10° N 21:25:49 51° ENE 21:28:49 23° SE
COSMOS 2428 4.5 21:23:31 10° NNE 21:27:21 18° NE 21:30:25 12° E
AVUM R/B 2.5 21:30:15 53° ENE 21:30:15 53° ENE 21:32:20 10° NNE
FALCON 9 R/B 4.5 20:54:50 10° WSW 21:33:21 76° S 21:41:45 10° E
USA 229 DEB 3.8 21:26:43 10° SSW 21:33:39 83° WNW 21:40:40 10° NNE
USA 229 3.8 21:26:50 10° SSW 21:33:45 84° WNW 21:40:46 10° NNE
Delta 2 Rocket 3.0 21:33:53 10° WSW 21:37:12 46° SSE 21:37:41 42° SE
CZ-4 SHROUD 3.3 21:35:58 32° S 21:37:16 74° WSW 21:40:25 10° NNW
BREEZE M DEB (TANK) 3.5 21:37:30 10° W 21:39:20 21° SSW 21:39:43 21° SSW
Cosmos 883 Rocket 4.5 21:33:28 10° N 21:39:41 70° E 21:43:37 23° SSE
USA 245 3.0 21:42:14 42° ENE 21:42:15 42° ENE 21:44:44 10° N
YAOGAN 6 2.5 21:43:09 39° SSE 21:44:24 74° ENE 21:48:02 10° N
ATLAS CENTAUR R/B 2.8 21:41:51 10° NW 21:45:47 31° WSW 21:48:06 18° SSW
Terra 3.3 21:47:00 20° E 21:48:17 22° ENE 21:51:55 10° NNE
SL-14 R/B 4.3 21:49:06 28° E 21:49:06 28° E 21:52:25 10° NNE
Cosmos 1515 Rocket 4.5 21:46:18 10° NNW 21:50:32 45° W 21:53:42 17° SSW
Cosmos 2219 Rocket 4.2 21:48:55 10° NNE 21:51:49 14° NE 21:54:24 11° E
Envisat 3.9 21:47:58 14° SSW 21:52:05 44° W 21:56:57 10° NNW
DELTA 2 R/B (1) 3.8 21:46:46 10° WNW 21:52:17 66° N 21:56:17 19° E
NOSS 3-1 (A) 4.0 21:52:30 31° SE 21:53:35 33° ESE 21:59:04 10° NE
Cosmos 2315 Rocket 4.0 21:49:49 10° N 21:56:00 66° E 21:59:01 31° SSE
CZ-4 R/B 3.8 21:51:34 10° NNE 21:56:31 72° ESE 21:58:58 29° S
Cosmos 405 3.2 21:53:20 10° NNW 21:56:57 69° W 21:57:59 43° SSW
ARGOS 3.1 21:56:06 33° SSE 21:58:33 71° ENE 22:03:56 10° N
MetOp-A 4.4 21:57:11 23° S 22:00:28 63° WSW 22:05:47 10° NNW
Cosmos 2112 Rocket 4.2 21:56:16 10° N 22:01:25 56° ENE 22:03:09 38° SE
Cosmos 2266 Rocket 4.5 21:55:31 10° SSW 22:01:46 60° W 22:07:57 10° N
Cosmos 2219 3.1 21:58:40 20° S 22:02:39 70° ESE 22:08:23 10° NNE
Cosmos 1633 Rocket 3.6 22:03:26 39° E 22:03:39 39° E 22:07:44 10° NNE
Sich 1 3.4 22:05:01 43° ESE 22:05:22 44° E 22:09:34 10° NNE
Cosmos 1437 3.7 22:08:45 34° SW 22:09:42 45° W 22:12:53 10° N
Cosmos 2322 3.6 22:07:46 10° NNW 22:13:32 88° ENE 22:15:33 42° SSE
H-2A R/B 2.5 22:12:25 39° ESE 22:13:49 48° ENE 22:18:59 10° N
Cosmos 1937 Rocket 4.3 22:15:06 32° E 22:15:06 32° E 22:19:29 10° NE
Cosmos 1805 Rocket 3.5 22:14:47 44° SSW 22:16:10 82° W 22:20:39 10° N
ATLAS 2AS CENTAUR R/B 4.1 22:16:57 22° E 22:16:57 22° E 22:22:01 10° ENE
Cosmos 1726 2.7 22:13:32 10° N 22:16:52 45° ENE 22:16:52 45° ENE
Cosmos 2237 Rocket 4.2 22:14:08 10° NNE 22:17:28 16° NE 22:19:39 13° E
Cosmos 2151 4.0 22:14:56 20° SW 22:17:28 41° W 22:21:28 10° N
SPOT 5 4.4 22:15:46 16° SW 22:18:23 27° W 22:22:20 10° NW
Cosmos 1244 Rocket 4.5 22:16:39 29° S 22:20:08 90° WNW 22:26:28 10° N
Cosmos 2322 Rocket 3.9 22:16:23 10° NW 22:20:51 25° WSW 22:24:16 14° SSW
Cosmos 1375 Rocket 4.5 22:16:58 10° NNW 22:23:34 83° WSW 22:25:55 43° SSE
Cosmos 1151 Rocket 4.5 22:20:28 10° NNW 22:24:18 32° W 22:26:10 22° SW
SPOT 1/Viking Rocket 4.1 22:23:43 32° SSW 22:25:48 51° W 22:30:49 10° NNW
Meteor 1-11 4.2 22:24:25 34° SSW 22:27:04 84° W 22:32:51 10° N
SL-16 R/B 4.0 22:25:09 10° NW 22:29:29 23° W 22:32:42 14° SW
NOAA 11 4.4 22:27:46 38° SSW 22:29:43 63° W 22:35:08 10° NNW
Nadezhda 1 Rocket 4.5 22:25:29 10° N 22:31:12 41° ENE 22:32:17 37° ESE
Cosmos 2360 Rocket 2.4 22:27:07 10° NNW 22:32:42 61° WSW 22:34:21 43° SSW
Cosmos 1707 Rocket 3.6 22:32:52 10° NNW 22:37:11 68° W 22:37:34 64° SW
Cosmos 1666 Rocket 3.8 22:37:19 53° SW 22:38:04 63° W 22:42:27 10° N
Cosmos 1745 Rocket 4.0 22:36:53 50° SSE 22:38:24 67° E 22:44:33 10° NNE
Cosmos 1680 Rocket 4.0 22:34:09 10° NNW 22:39:14 52° WSW 22:40:30 42° SSW
SWAS 4.4 22:36:31 10° NNW 22:40:48 79° W 22:40:48 79° W
NOSS 3-1 (C) 3.4 22:37:45 18° SW 22:42:12 77° WNW 22:48:36 10° NNE
SL-08 R/B 4.4 22:40:59 48° S 22:42:52 85° E 22:49:09 10° N
CZ-4C R/B 4.1 22:46:07 42° WNW 22:46:07 42° WNW 22:48:57 10° NNW
Cosmos 2150 Rocket 4.1 22:45:49 50° SSW 22:47:18 81° WNW 22:52:48 10° NNE
Cosmos 1300 3.6 22:45:56 10° NNW 22:49:23 42° W 22:49:23 42° W
DMSP B5D2-2 4.0 22:44:23 10° N 22:49:37 81° WNW 22:50:41 57° SSW
Cosmos 1470 Rocket 3.9 22:52:02 54° NE 22:52:02 54° NE 22:55:34 10° NNE
Cosmos 1898 Rocket 3.5 22:50:22 54° SW 22:51:30 75° WNW 22:56:42 10° NNE
Cosmos 1626 3.8 22:53:56 27° NE 22:53:56 27° NE 22:55:53 10° NNE
Cosmos 1933 Rocket 3.9 22:53:33 57° NE 22:53:33 57° NE 22:57:19 10° NNE
Cosmos 2227 Rocket 2.6 22:54:43 44° E 22:54:43 44° E 22:59:29 10° NE
Meteor 1-4 Rocket 3.6 22:54:31 10° NNW 22:57:18 47° NNW 22:57:18 47° NNW
Cosmos 2333 Rocket 3.0 22:55:05 10° N 23:00:27 39° ENE 23:01:13 37° E
Cosmos 220 Rocket 4.4 23:05:39 60° N 23:05:39 60° N 23:09:19 10° NNE
Meteor 2-10 4.1 23:00:14 10° N 23:05:58 89° W 23:06:31 75° S
SL-16 R/B 4.1 23:04:13 10° NNE 23:07:58 18° NE 23:09:30 16° ENE
Cosmos 2242 Rocket 4.2 23:04:54 10° NNW 23:09:01 51° W 23:09:01 51° W
Cosmos 1386 Rocket 4.2 23:11:02 70° S 23:11:48 90° E 23:17:50 10° N
COSMOS 2428 2.8 23:06:26 10° NNW 23:12:01 60° WSW 23:12:26 59° SW
IGS 5A 4.4 23:13:11 42° WNW 23:13:11 42° WNW 23:16:35 10° NNW
Cosmos 1455 3.6 23:09:02 10° N 23:11:23 35° N 23:11:23 35° N
Spot 4 4.2 23:15:50 57° W 23:15:50 57° W 23:20:28 10° NNW
COSMOS 2455 4.5 23:14:56 10° N 23:19:41 23° NE 23:21:35 20° ENE
SeaSat 1 2.9 23:21:10 53° NE 23:21:10 53° NE 23:25:48 10° NNW
Cosmos 2297 Rocket 2.6 23:22:46 50° ENE 23:22:46 50° ENE 23:27:23 10° NNE
Terra 3.0 23:25:53 33° W 23:25:53 33° W 23:30:06 10° NNW
NOSS 0 Rocket 3.8 23:22:56 10° NNW 23:29:08 79° ENE 23:29:27 76° ESE
Cosmos 292 Rocket 4.5 23:29:50 10° NNW 23:33:39 48° WNW 23:33:39 48° WNW
Cosmos 2219 Rocket 2.2 23:30:48 10° NNW 23:36:07 76° WNW 23:36:07 76° WNW
DELTA 2 R/B (1) 4.4 23:33:19 10° WNW 23:37:02 41° W 23:37:02 41° W
GEOS 3 Rocket 3.9 23:41:20 59° NE 23:41:20 59° NE 23:46:26 10° NNW
Cosmos 1980 3.7 23:42:43 10° NNW 23:47:57 77° NNW 23:47:57 77° NNW
H-2A R/B 4.0 23:53:03 18° W 23:53:27 18° W 23:57:06 10° NW
